Location: Waco, TX
(31.5480°N, 97.1670°W)
Time: 12:53:02
(UTC-05:00)

ISS - Pass Details

Date: 14 June 2018
Orbit: 402 x 406 km, 51.6° (Epoch: 20 June)

Event Time Altitude Azimuth Distance (km) Brightness Sun altitude
Rises 13:19:18 0° 271° (W) 2,319 0.0 81.5°
Reaches altitude 10° 13:22:30 10° 305° (NW) 1,462 -0.9 81.6°
Maximum altitude 13:23:46 12° 328° (NNW) 1,362 -1.1 81.7°
Drops below altitude 10° 13:25:03 10° 351° (N) 1,463 -1.0 81.7°
Sets 13:28:16 0° 26° (NNE) 2,325 -0.1 81.7°
